Location: São Paulo
(23.5507°S, 46.6334°W)
Time: 18:35:17
(UTC-03:00)

Tiros 1 - Pass Details

Date: 19 February 2026
Orbit: 618 x 649 km, 48.4° (Epoch: 8 March)

Event Time Altitude Azimuth Distance (km) Brightness Sun altitude
Rises 01:55:40 0° 206° (SSW) 2,981 - -48.1°
Reaches altitude 10° 01:58:59 10° 182° (S) 2,067 - -47.6°
Maximum altitude 02:01:44 15° 147° (SSE) 1,749 - -47.3°
Drops below altitude 10° 02:04:27 10° 111° (ESE) 2,057 - -46.9°
Sets 02:07:44 0° 88° (E) 2,959 - -46.4°
